EDT,Max TemperatureF,Mean TemperatureF,Min TemperatureF,Max Dew PointF,MeanDew PointF,Min DewpointF,Max Humidity, Mean Humidity, Min Humidity, Max Sea Level PressureIn, Mean Sea Level PressureIn, Min Sea Level PressureIn, Max VisibilityMiles, Mean VisibilityMiles, Min VisibilityMiles, Max Wind SpeedMPH, Mean Wind SpeedMPH, Max Gust SpeedMPH,PrecipitationIn, CloudCover, Events, WindDirDegrees
2012-4-1,63,57,50,49,44,38,80,61,42,29.91,29.82,29.62,10,10,10,18,11,24,0.00,4,,43
2012-4-2,65,56,46,53,44,37,80,64,47,29.94,29.77,29.51,10,10,10,29,13,41,0.08,2,,357
2012-4-3,74,59,44,49,36,23,77,51,25,30.04,29.95,29.84,10,10,10,16,7,21,0.00,0,,42
2012-4-4,80,70,60,63,56,47,76,56,35,29.83,29.68,29.56,10,9,2,18,8,23,0.25,2,Rain-Thunderstorm,216
2012-4-5,66,58,50,63,39,33,87,67,46,29.90,29.82,29.64,10,10,4,24,11,36,T,8,,58
2012-4-6,57,53,49,43,36,29,71,52,33,30.03,29.94,29.86,10,10,10,25,14,33,0.00,3,,20
2012-4-7,66,56,45,38,27,17,59,37,15,30.20,30.12,30.04,10,10,10,25,10,32,0.00,0,,342
2012-4-8,73,59,45,38,31,23,65,41,16,30.10,29.98,29.84,10,10,10,14,6,28,0.00,0,,279
2012-4-9,76,62,48,48,34,25,80,48,15,29.99,29.88,29.78,10,10,10,26,8,32,0.00,1,,267
2012-4-10,75,62,49,46,37,25,80,48,16,29.89,29.80,29.70,10,10,10,29,11,38,T,3,,269
2012-4-11,58,53,48,37,28,23,50,39,27,30.05,29.93,29.79,10,10,10,26,10,36,0.00,5,,327
2012-4-12,62,53,44,41,34,30,71,52,32,30.17,30.11,30.04,10,10,10,17,7,23,0.00,1,,348
2012-4-13,63,54,44,44,37,30,77,54,30,30.27,30.23,30.17,10,10,10,15,6,20,0.00,1,,318
2012-4-14,78,61,44,43,38,33,83,52,20,30.32,30.24,30.14,10,10,10,21,11,28,0.00,0,,214
2012-4-15,86,75,63,58,55,45,68,52,35,30.16,30.12,30.07,10,10,10,22,15,33,0.00,1,,225
2012-4-16,90,78,65,59,56,54,73,53,32,30.14,30.09,30.03,10,10,10,26,15,32,0.00,0,,223
2012-4-17,79,72,64,59,54,49,73,56,38,30.16,30.12,30.04,10,10,10,18,10,25,0.00,1,,357
2012-4-18,68,62,56,54,47,36,77,56,34,30.20,30.14,30.10,10,10,10,26,12,35,T,5,,45
2012-4-19,64,60,55,53,52,50,86,77,67,30.10,30.07,30.04,10,10,5,18,10,22,0.10,7,Rain,42
2012-4-20,72,61,50,56,53,48,93,77,61,30.04,29.96,29.88,10,10,7,13,5,17,0.00,2,,66
2012-4-21,86,73,59,64,59,54,90,61,32,29.88,29.79,29.69,10,8,2,26,9,32,0.08,3,Rain,197
2012-4-22,66,59,51,61,57,47,90,84,77,29.74,29.58,29.30,10,5,1,24,13,40,2.24,8,Rain,24
2012-4-23,60,53,45,48,43,36,89,73,56,29.64,29.45,29.37,10,9,4,20,9,24,0.02,8,Rain,277
2012-4-24,66,54,42,39,31,23,83,52,20,29.76,29.67,29.62,10,10,10,23,10,30,0.00,1,,234
2012-4-25,72,58,43,44,34,25,76,47,17,29.94,29.86,29.78,10,10,10,18,6,24,0.00,1,,229
2012-4-26,78,68,58,63,57,44,84,67,50,29.94,29.76,29.66,10,10,8,23,11,31,0.05,5,Rain,216
2012-4-27,70,62,53,61,47,36,76,57,37,30.17,29.96,29.74,10,10,10,21,8,30,0.00,3,,358
2012-4-28,63,58,52,47,43,35,77,58,39,30.27,30.19,30.13,10,10,4,23,8,30,0.09,6,Rain,49
2012-4-29,63,57,50,52,50,47,89,75,60,30.25,30.19,30.11,10,10,2,16,5,22,0.04,6,,31
2012-4-30,73,61,49,56,50,43,89,62,35,30.30,30.23,30.15,10,10,7,15,7,21,0.00,5,,160